TimeEDT,TemperatureF,Dew PointF,Humidity,Sea Level PressureIn,VisibilityMPH,Wind Direction,Wind SpeedMPH,Gust SpeedMPH,PrecipitationIn,Events,Conditions,WindDirDegrees,DateUTC
12:15 AM,71.2,68.9,92,29.78,10.0,NNW,3.5,-,N/A,,Mostly Cloudy,330,2013-06-30 04:15:00
12:35 AM,72.0,68.5,89,29.77,10.0,Calm,Calm,-,N/A,,Overcast,0,2013-06-30 04:35:00
12:55 AM,70.9,67.8,90,29.77,10.0,NW,4.6,-,N/A,,Mostly Cloudy,320,2013-06-30 04:55:00
1:15 AM,71.6,65.7,81,29.77,10.0,Calm,Calm,-,N/A,,Overcast,0,2013-06-30 05:15:00
1:35 AM,69.6,66.4,89,29.76,10.0,Calm,Calm,-,N/A,,Scattered Clouds,0,2013-06-30 05:35:00
1:55 AM,68.2,65.5,91,29.76,10.0,Calm,Calm,-,N/A,,Clear,0,2013-06-30 05:55:00
2:15 AM,68.0,65.7,92,29.77,10.0,Calm,Calm,-,N/A,,Clear,0,2013-06-30 06:15:00
2:35 AM,68.0,65.7,92,29.77,10.0,Calm,Calm,-,N/A,,Mostly Cloudy,0,2013-06-30 06:35:00
2:55 AM,68.2,64.9,89,29.76,10.0,Calm,Calm,-,N/A,,Scattered Clouds,0,2013-06-30 06:55:00
3:15 AM,67.6,65.3,92,29.76,10.0,Calm,Calm,-,N/A,,Clear,0,2013-06-30 07:15:00
3:35 AM,67.3,65.1,93,29.76,10.0,Calm,Calm,-,N/A,,Clear,0,2013-06-30 07:35:00
3:55 AM,68.0,64.6,89,29.75,10.0,Calm,Calm,-,N/A,,Clear,0,2013-06-30 07:55:00
4:15 AM,67.8,64.8,90,29.76,10.0,Calm,Calm,-,N/A,,Scattered Clouds,0,2013-06-30 08:15:00
4:35 AM,68.2,64.4,88,29.76,10.0,Calm,Calm,-,N/A,,Overcast,0,2013-06-30 08:35:00
4:55 AM,68.0,64.9,90,29.76,10.0,Calm,Calm,-,N/A,,Overcast,0,2013-06-30 08:55:00
5:15 AM,68.0,65.3,91,29.77,10.0,Calm,Calm,-,N/A,,Overcast,0,2013-06-30 09:15:00
5:35 AM,68.0,65.1,90,29.78,10.0,Calm,Calm,-,N/A,Rain,Light Rain,0,2013-06-30 09:35:00
5:55 AM,68.0,66.0,93,29.78,10.0,Calm,Calm,-,N/A,,Overcast,0,2013-06-30 09:55:00
6:15 AM,68.0,66.0,93,29.79,10.0,Calm,Calm,-,N/A,,Overcast,0,2013-06-30 10:15:00
6:35 AM,68.0,65.5,92,29.80,10.0,Calm,Calm,-,N/A,,Overcast,0,2013-06-30 10:35:00
6:55 AM,68.0,65.5,92,29.80,10.0,Calm,Calm,-,N/A,,Overcast,0,2013-06-30 10:55:00
7:15 AM,68.2,65.7,92,29.80,10.0,Calm,Calm,-,N/A,,Overcast,0,2013-06-30 11:15:00
7:35 AM,69.1,66.2,91,29.81,10.0,Calm,Calm,-,N/A,,Overcast,0,2013-06-30 11:35:00
7:55 AM,70.5,66.4,87,29.80,10.0,Calm,Calm,-,N/A,,Mostly Cloudy,0,2013-06-30 11:55:00
8:15 AM,71.2,67.3,87,29.82,10.0,Calm,Calm,-,N/A,,Scattered Clouds,0,2013-06-30 12:15:00
8:35 AM,71.6,67.8,88,29.83,10.0,Calm,Calm,-,N/A,,Mostly Cloudy,0,2013-06-30 12:35:00
8:55 AM,72.7,68.7,87,29.83,10.0,Calm,Calm,-,N/A,,Overcast,0,2013-06-30 12:55:00
9:15 AM,73.0,69.1,87,29.83,10.0,Calm,Calm,-,N/A,,Overcast,0,2013-06-30 13:15:00
9:35 AM,73.2,69.8,89,29.83,10.0,Calm,Calm,-,N/A,,Overcast,0,2013-06-30 13:35:00
9:55 AM,73.8,70.2,88,29.83,10.0,Calm,Calm,-,N/A,,Overcast,0,2013-06-30 13:55:00
10:15 AM,75.2,70.0,84,29.83,10.0,Calm,Calm,-,N/A,,Mostly Cloudy,0,2013-06-30 14:15:00
10:35 AM,75.9,70.3,83,29.83,10.0,Calm,Calm,-,N/A,,Overcast,0,2013-06-30 14:35:00
10:55 AM,76.6,70.0,80,29.83,10.0,Calm,Calm,-,N/A,,Overcast,0,2013-06-30 14:55:00
11:15 AM,76.6,70.3,81,29.83,10.0,Calm,Calm,-,N/A,,Overcast,0,2013-06-30 15:15:00
11:35 AM,77.5,70.3,78,29.83,10.0,SSE,3.5,-,N/A,,Overcast,160,2013-06-30 15:35:00
11:55 AM,78.6,70.0,75,29.83,10.0,Calm,Calm,-,N/A,,Mostly Cloudy,0,2013-06-30 15:55:00
12:15 PM,80.1,70.0,71,29.84,10.0,Calm,Calm,-,N/A,,Overcast,0,2013-06-30 16:15:00
12:35 PM,80.8,70.2,70,29.83,10.0,WSW,3.5,-,N/A,,Overcast,250,2013-06-30 16:35:00
12:55 PM,82.8,70.0,65,29.83,10.0,Calm,Calm,-,N/A,,Overcast,0,2013-06-30 16:55:00
1:15 PM,81.5,70.2,68,29.82,10.0,Calm,Calm,-,N/A,,Overcast,0,2013-06-30 17:15:00
1:35 PM,83.7,70.2,64,29.82,10.0,Calm,Calm,-,N/A,,Mostly Cloudy,0,2013-06-30 17:35:00
1:55 PM,85.1,69.6,60,29.81,10.0,Calm,Calm,-,N/A,,Mostly Cloudy,0,2013-06-30 17:55:00
2:15 PM,85.6,68.5,56,29.81,10.0,Calm,Calm,-,N/A,,Scattered Clouds,0,2013-06-30 18:15:00
2:35 PM,85.5,69.1,58,29.81,10.0,SSE,3.5,-,N/A,,Mostly Cloudy,160,2013-06-30 18:35:00
2:55 PM,85.5,69.8,59,29.81,10.0,Calm,Calm,-,N/A,,Overcast,0,2013-06-30 18:55:00
3:15 PM,86.2,68.5,55,29.80,10.0,SSE,4.6,-,N/A,,Mostly Cloudy,160,2013-06-30 19:15:00
3:35 PM,86.0,69.3,57,29.80,10.0,SSE,5.8,-,N/A,,Scattered Clouds,160,2013-06-30 19:35:00
3:55 PM,87.4,68.5,53,29.80,10.0,South,3.5,-,N/A,,Clear,180,2013-06-30 19:55:00
4:15 PM,87.8,68.0,52,29.79,10.0,SSE,6.9,-,N/A,,Clear,150,2013-06-30 20:15:00
4:35 PM,86.7,68.9,55,29.80,10.0,SSE,6.9,-,N/A,,Scattered Clouds,150,2013-06-30 20:35:00
4:55 PM,84.2,71.1,65,29.80,10.0,SE,10.4,-,N/A,,Scattered Clouds,140,2013-06-30 20:55:00
5:15 PM,82.2,71.1,69,29.81,10.0,SSE,12.7,17.3,N/A,,Scattered Clouds,150,2013-06-30 21:15:00
5:35 PM,82.0,70.0,67,29.81,10.0,SE,11.5,-,N/A,,Scattered Clouds,140,2013-06-30 21:35:00
5:55 PM,80.1,67.8,66,29.82,10.0,SSE,8.1,16.1,N/A,,Clear,150,2013-06-30 21:55:00
6:15 PM,78.3,70.0,76,29.82,10.0,SSE,9.2,19.6,N/A,,Clear,160,2013-06-30 22:15:00
6:35 PM,77.5,70.3,78,29.83,10.0,SSE,5.8,-,N/A,,Scattered Clouds,160,2013-06-30 22:35:00
6:55 PM,77.0,69.6,78,29.84,10.0,SSE,8.1,-,N/A,,Mostly Cloudy,150,2013-06-30 22:55:00
7:15 PM,75.4,68.4,79,29.85,10.0,South,4.6,-,N/A,,Scattered Clouds,170,2013-06-30 23:15:00
7:35 PM,74.7,68.4,81,29.86,10.0,SSE,4.6,-,N/A,,Scattered Clouds,160,2013-06-30 23:35:00
7:55 PM,73.9,68.5,83,29.87,10.0,Calm,Calm,-,N/A,,Mostly Cloudy,0,2013-06-30 23:55:00
8:15 PM,73.4,68.5,85,29.87,10.0,Calm,Calm,-,N/A,,Scattered Clouds,0,2013-07-01 00:15:00
8:35 PM,73.0,68.5,86,29.88,10.0,SSE,3.5,-,N/A,,Mostly Cloudy,160,2013-07-01 00:35:00
8:55 PM,71.8,68.4,89,29.88,10.0,Calm,Calm,-,N/A,Rain,Light Rain,0,2013-07-01 00:55:00
9:15 PM,70.9,68.5,92,29.88,10.0,Calm,Calm,-,N/A,Rain,Light Rain,0,2013-07-01 01:15:00
9:35 PM,70.7,68.9,94,29.88,10.0,Calm,Calm,-,N/A,Rain,Light Rain,0,2013-07-01 01:35:00
9:55 PM,70.5,68.7,94,29.89,10.0,Calm,Calm,-,0.01,,Mostly Cloudy,0,2013-07-01 01:55:00
10:15 PM,70.3,68.7,95,29.90,10.0,Calm,Calm,-,N/A,,Overcast,0,2013-07-01 02:15:00
10:35 PM,70.3,68.7,95,29.90,10.0,Calm,Calm,-,N/A,,Overcast,0,2013-07-01 02:35:00
10:55 PM,70.7,69.1,95,29.90,10.0,Calm,Calm,-,N/A,Rain,Light Rain,0,2013-07-01 02:55:00
11:15 PM,70.0,68.5,95,29.90,7.0,ESE,3.5,-,N/A,,Light Drizzle,120,2013-07-01 03:15:00
11:35 PM,69.8,68.5,96,29.90,7.0,SE,3.5,-,N/A,,Scattered Clouds,140,2013-07-01 03:35:00
11:55 PM,69.8,68.4,95,29.90,7.0,Calm,Calm,-,N/A,Rain,Light Rain,0,2013-07-01 03:55:00